Regional Weather Roundup
Issued by NWS

Home | Current Version | Previous Version | Graphics & Text | Print | Product List | Glossary On
Versions: 1 2 3 4 5 6 7 8 9 10 11 12 13 14 15 16 17 18 19 20 21 22 23 24 25 26 27 28 29 30 31 32 33 34 35 36 37 38 39 40 41 42 43 44 45 46 47 48 49 50
000
ASUS43 KBIS 172302
RWRND

NORTH DAKOTA REGIONAL WEATHER ROUNDUP
NATIONAL WEATHER SERVICE BISMARCK ND
600 PM CDT TUE OCT 17 2017

NOTE: "FAIR" INDICATES FEW OR NO CLOUDS BELOW 12,000 FEET WITH NO
SIGNIFICANT WEATHER AND/OR OBSTRUCTIONS TO VISIBILITY.


NDZ001>003-009>011-017-180000-
NORTHWEST NORTH DAKOTA

CITY           SKY/WX    TMP DP  RH WIND       PRES   REMARKS
WILLISTON      CLEAR     75  25  15 SW17G24   29.61F
MINOT          CLEAR     75  30  19 S13G24    29.61F
MINOT AFB      CLEAR     74  30  20 SW15      29.59F
$$

NDZ018>021-031>035-040>046-180000-
SOUTHWEST NORTH DAKOTA

CITY           SKY/WX    TMP DP  RH WIND       PRES   REMARKS
BISMARCK       CLEAR     76  24  14 SW12      29.73F
DICKINSON      CLEAR     73  24  16 SW16      29.72F
GARRISON         N/A     71  34  25 SW14      29.67F
HETTINGER ARPT CLEAR     74  21  13 SW9       29.81F
$$

NDZ004>008-012>016-024-026-027-054-180000-
NORTHEAST NORTH DAKOTA

CITY           SKY/WX    TMP DP  RH WIND       PRES   REMARKS
GRAND FORKS    PTCLDY    76  29  17 SW12G25   29.67F
GRND FRKS AFB  CLEAR     73  31  21 SW9       29.68S
DEVILS LAKE    CLEAR     70  35  27 SW13      29.67F
$$

NDZ022-023-025-028>030-036>039-047>053-180000-
SOUTHEAST NORTH DAKOTA

CITY           SKY/WX    TMP DP  RH WIND       PRES   REMARKS
FARGO          CLEAR     71  41  33 S13       29.74F
JAMESTOWN      CLEAR     73  30  20 SW8       29.73F
$$




USA.gov is the U.S. government's official web portal to all federal, state and local government web resources and services.